NOAA 16 DEB, 42375

Orbit data source: Space-Track

NOAA 16 DEB, 42375 is space debris in SSO originally from a launch on Thu, 21 Sep 2000 UTC launched from the Air Force Western Test Range (AFWTR). Debris objects in space refer to the collection of defunct objects orbiting the Earth. Examples of debris include non-operational satellites, rocket bodies, and fragments generated from explosions, collisions, or faulty payload assembly.

Loading next visibility...
Identifier
42375, 2000-055RT
Orbit
SSO
Country
Flag of USUS
Related business
Manufacturer
Unknown
Mission
Spacecraft
Bus & Motor
Unknown
Mass
Unknown
Launch date (UTC)
2000-09-21 (26 years ago)
Launch vehicle
Unknown
Launch site
Air Force Western Test Range (AFWTR)
Object type
Payload
Rocket body
Debris
Shape & HBR
Unknown shape, 0.1 m
Radar Cross Section
Medium (>0.1 m² and <1 m²)

Expand to show TLE details & history
Last TLE update: 6 days ago

TLE from 6 days ago
0 NOAA 16 DEB
1 42375U 00055RT  26166.98244783  .00002819  00000-0  11279-2 0  9999
2 42375  98.6639 240.4744 0007635 140.5766 219.5973 14.29148969526090
Epoch: 2026-06-15T23:34Z
TLE epoch observation values (Epoch: 2026-06-15T23:34:43.492Z)
Latitude
0.00002°
Longitude
-17.46784°
Altitude
801.728 km
Speed
7.45 km/s
True Right ascension
16h 01m 53s
True Declination
0° 00' 00"
Sunlit
Object was in full shadow at epoch
Visualization orbit readout
Latitude
Unknown
Longitude
Unknown
Altitude
Unknown
Speed
Unknown
Apparent Right ascension
Unknown
Apparent Declination
Unknown
Sunlit
N/A
Visualization observer readout
Local Sidereal Time
22:53:31
Azimuth
Unknown
Elevation
Unknown
Doppler factor
Unknown
Orbital elements
Apogee altitude
797.195 km
Perigee altitude
786.247 km
Semi-major axis
7,169.858 km
Eccentricity
0.00076
Inclination
98.6639°
RAAN
240.4744°
Arg. of periapsis
140.5766°
True anomaly
219.54158°
Mean anomaly
219.5973°
Eccentric anomaly
219.56943°
Mean motion
3.57501 °/min
Orbital period
100.7 mins
BSTAR
0.0011279
Loading maneuver chart data...
Computing Atmospheric mass density...
Loading historical data...
Loading historical data...
Loading historical data...
Loading historical data...
Loading historical data...
Loading historical data...
Loading historical data...

Documentation

Showing up to 5 results
|